Location: Zilina
(0.0000°N, 18.7333°E)
Time: 13:50:12
(UTC+02:00)

Cosmos 372 Rocket - Pass Details

Date: 19 February 2019
Orbit: 738 x 768 km, 74.1° (Epoch: 16 October)

Event Time Altitude Azimuth Distance (km) Brightness Sun altitude
Rises 19:24:53 0° 345° (NNW) 3,221 7.3 -21.1°
Reaches altitude 10° 19:27:15 10° 344° (NNW) 2,296 6.5 -21.6°
Maximum altitude 19:32:28 77° 258° (WSW) 787 4.1 -22.9°
Drops below altitude 10° 19:37:40 10° 172° (S) 2,295 6.5 -24.2°
Sets 19:40:03 0° 171° (S) 3,219 7.3 -24.8°
